Regional Weather Roundup
Issued by NWS

Home | Current Version | Previous Version | Graphics & Text | Print | Product List | Glossary On
Versions: 1 2 3 4 5 6 7 8 9 10 11 12 13 14 15 16 17 18 19 20 21 22 23 24 25 26 27 28 29 30 31 32 33 34 35 36 37 38 39 40 41 42 43 44 45 46 47 48 49 50
000
ASUS43 KOAX 300310
RWRNE

WEATHER ROUNDUP FOR NEBRASKA
NATIONAL WEATHER SERVICE OMAHA NE
900 PM CST THU JAN 29 2015

NOTES: SATELLITE DATA IS BEING USED TO AUGMENT CLOUD COVER ABOVE
       12000 FEET.
       "FAIR" INDICATES FEW OR NO CLOUDS BELOW 12,000 FEET WITH NO
       SIGNIFICANT WEATHER AND/OR OBSTRUCTIONS TO VISIBILITY.

  * THESE STATIONS DO NOT REPORT WEATHER SUCH AS RAIN...SNOW OR FOG.

NEZ001>004-019>022-054>056-300400-
NEBRASKA PANHANDLE

CITY           SKY/WX    TMP DP  RH WIND       PRES   REMARKS
SCOTTSBLUFF    CLEAR     30  22  72 SE7       30.39F WCI  23
ALLIANCE       CLEAR     24  15  68 SE7       30.39F WCI  16
CHADRON        CLEAR     31  19  61 VRB3      30.38S
KIMBALL        CLEAR     29  20  69 S8        30.38S WCI  21
SIDNEY         CLEAR     27  17  66 S7        30.41F WCI  19
$$

NEZ057>060-069>072-079>082-300400-
SOUTHWEST NEBRASKA

CITY           SKY/WX    TMP DP  RH WIND       PRES   REMARKS
NORTH PLATTE   CLEAR     22  14  71 CALM      30.46F
IMPERIAL       PTCLDY    26  16  65 CALM      30.46S
LEXINGTON      CLEAR     23  18  81 CALM      30.48S
MCCOOK         CLEAR     30  19  63 CALM      30.48S
OGALLALA       CLEAR     20  16  83 CALM      30.45F
$$

NEZ005>010-023>029-035>040-094-300400-
NORTH CENTRAL NEBRASKA

CITY           SKY/WX    TMP DP  RH WIND       PRES   REMARKS
VALENTINE      CLEAR     25  18  74 CALM      30.45S
AINSWORTH      CLEAR     24  19  81 S5        30.46R WCI  18
BROKEN BOW     CLEAR     19  14  81 CALM      30.47F
O`NEILL        CLEAR     25  22  88 NE5       30.49S WCI  19
ORD            CLEAR     23  17  78 SW3       30.47F
THEDFORD       CLEAR     28  19  68 CALM      30.46S
$$

NEZ041-046>049-061>064-073>077-083>087-300400-
SOUTH CENTRAL NEBRASKA

CITY           SKY/WX    TMP DP  RH WIND       PRES   REMARKS
GRAND ISLAND   CLEAR     26  19  74 N3        30.51R
AURORA         CLEAR     26  20  77 CALM      30.50R
HASTINGS       CLEAR     25  15  66 CALM      30.49F
HEBRON         CLEAR     25  17  73 CALM      30.51F
HOLDREGE       PTCLDY    27  18  69 W3        30.48S
KEARNEY *      CLEAR     27  16  63 NW3       30.49S
YORK           CLEAR     25  21  86 CALM      30.51R
$$

NEZ011>018-030>034-042>045-300400-
NORTHEAST NEBRASKA

CITY           SKY/WX    TMP DP  RH WIND       PRES   REMARKS
NORFOLK        CLEAR     26  21  81 N8        30.51S WCI  18
ALBION         PTCLDY    22  17  80 CALM      30.50R
BLAIR          CLEAR     29  22  76 N8        30.52R WCI  21
COLUMBUS *     CLEAR     27  18  69 NE7       30.53S WCI  19
FREMONT        CLEAR     27  22  82 NW6       30.54R WCI  20
TEKAMAH        CLOUDY    32  23  69 N12       30.54R WCI  23
WAYNE          CLEAR     24  20  86 N7        30.53S WCI  16
$$

NEZ050>053-065>068-078-088>093-300400-
SOUTHEAST NEBRASKA

CITY           SKY/WX    TMP DP  RH WIND       PRES   REMARKS
LINCOLN        CLEAR     27  21  78 N5        30.54R WCI  22
OMAHA EPPLEY   CLEAR     28  22  78 N9        30.53R WCI  19
BEATRICE       CLEAR     24  19  83 W5        30.52R WCI  18
FALLS CITY     CLEAR     27  20  75 NW5       30.51R WCI  22
NEBRASKA CITY  CLEAR     28  20  71 N8        30.51R WCI  20
PLATTSMOUTH    FAIR      28  22  76 N3        30.51R
$$

NEZ044-045-051>053-067-300400-
OMAHA AREA

CITY           SKY/WX    TMP DP  RH WIND       PRES   REMARKS
OMAHA EPPLEY   CLEAR     28  22  78 N9        30.53R WCI  19
BLAIR          CLEAR     29  22  76 N8        30.52R WCI  21
FREMONT        CLEAR     27  22  82 NW6       30.54R WCI  20
MILLARD        CLEAR     31  23  72 NW5       30.53R WCI  26
OFFUTT AFB     CLEAR     30  23  74 N9        30.52R WCI  22
PLATTSMOUTH    FAIR      28  22  76 N3        30.51R
WAHOO          FAIR      24  19  82 N8        30.53R WCI  15
$$



USA.gov is the U.S. government's official web portal to all federal, state and local government web resources and services.